Broken Bow, NE

2:34 AM CDT on June 28, 2017 (GMT -0500)
Broken Bow Municipal

Weather History for KBBW - November, 2012

Change the Weather History Date:

Saturday, November 10, 2012

  Actual Average Record
Temperature  
Mean Temperature 35 °F 39 °F  
Max Temperature 49 °F 52 °F 77 °F (1999)
Min Temperature 21 °F 26 °F 0 °F (1966)
Degree Days  
Heating Degree Days 30 26  
Month to date heating degree days 241 240  
Cooling Degree Days 0 0  
Month to date cooling degree days 0 0  
Year to date cooling degree days 1077 768  
Moisture  
Dew Point 35 °F    
Average Humidity 86    
Maximum Humidity 100    
Minimum Humidity 71    
Precipitation  
Precipitation 0.06 in 0.04 in 0.42 in (1998)
Sea Level Pressure  
Sea Level Pressure 29.60 in    
Wind  
Wind Speed 12 mph (NNW)    
Max Wind Speed 40 mph    
Max Gust Speed 49 mph    
Visibility 6 miles    
Events Fog , Rain , Thunderstorm    
T = Trace of Precipitation, MM = Missing Value Source: NWS Daily Summary

Daily Weather History Graph

Daily Weather History Graph

Search for Another Location

Airport or City:

Trip Planner

Search our weather history database for the weather conditions in past years. The results will help you decide how hot, cold, wet, or windy it might be!

Date:

Astronomy

Nov. 10, 2012 Rise Set
Actual Time 7:21 AM CST 5:22 PM CST
Civil Twilight 6:52 AM CST 5:52 PM CST
Nautical Twilight 6:19 AM CST 6:25 PM CST
Astronomical Twilight 5:46 AM CST 6:58 PM CST
Moon 3:26 AM CST (11/10) 3:12 PM CST (11/10)
Length of Visible Light 11h 00m
Length of Day
10h 01m
Waning Crescent, 14% of the Moon is Illuminated
Nov 10
Waning Crescent
Nov 13
New
Nov 20
First Quarter
Nov 28
Full
Dec 6
Last Quarter

Hourly Weather History & Observations

Time (CST) Temp. Windchill Dew Point Humidity Pressure Visibility Wind Dir Wind Speed Gust Speed Precip Events Conditions
12:53 AM 37.9 °F 33.5 °F 37.9 °F 100% 29.62 in 0.2 mi NNE 5.8 mph - N/A Fog Fog
1:53 AM 37.9 °F 35.5 °F 37.9 °F 100% 29.60 in 0.2 mi NNE 3.5 mph - N/A Fog Fog
2:53 AM 37.0 °F 32.4 °F 37.0 °F 100% 29.60 in 0.5 mi North 5.8 mph - N/A Fog Fog
3:53 AM 37.9 °F 33.5 °F 37.9 °F 100% 29.57 in 0.8 mi North 5.8 mph - N/A   Overcast
4:11 AM 37.4 °F 33.8 °F 37.4 °F 100% 29.55 in 1.2 mi NNW 4.6 mph - N/A   Overcast
4:26 AM 37.4 °F 32.1 °F 37.4 °F 100% 29.55 in 0.8 mi NNW 6.9 mph - N/A   Overcast
4:53 AM 37.9 °F 34.4 °F 37.9 °F 100% 29.58 in 0.2 mi North 4.6 mph - N/A Fog Fog
5:53 AM 37.9 °F - 37.9 °F 100% 29.59 in 0.2 mi Calm Calm - N/A Fog Fog
6:53 AM 39.0 °F - 39.0 °F 100% 29.58 in 0.2 mi Calm Calm - N/A Fog Fog
7:53 AM 39.0 °F - 39.0 °F 100% 29.60 in 0.2 mi Calm Calm - N/A Fog Fog
8:12 AM 39.2 °F - 37.4 °F 93% 29.57 in 1.0 mi Calm Calm - N/A   Overcast
8:23 AM 39.2 °F - 39.2 °F 100% 29.57 in 0.8 mi Calm Calm - N/A   Overcast
8:35 AM 39.2 °F - 39.2 °F 100% 29.58 in 1.2 mi Calm Calm - N/A   Overcast
8:53 AM 39.0 °F - 39.0 °F 100% 29.61 in 1.0 mi Calm Calm - N/A   Overcast
9:12 AM 39.2 °F 37.0 °F 39.2 °F 100% 29.57 in 1.2 mi West 3.5 mph - N/A   Overcast
9:53 AM 39.9 °F 35.1 °F 39.0 °F 97% 29.59 in 1.8 mi North 6.9 mph - N/A   Overcast
10:00 AM 39.2 °F 35.0 °F 39.2 °F 100% 29.57 in 2.5 mi North 5.8 mph - N/A   Overcast
10:15 AM 41.0 °F 37.1 °F 39.2 °F 93% 29.56 in 3.0 mi NNW 5.8 mph - N/A   Overcast
10:53 AM 42.1 °F 37.1 °F 39.9 °F 92% 29.57 in 4.0 mi North 8.1 mph - N/A   Overcast
11:13 AM 42.8 °F 38.6 °F 39.2 °F 87% 29.54 in 5.0 mi North 6.9 mph - N/A   Overcast
11:53 AM 46.0 °F 41.9 °F 39.9 °F 79% 29.56 in 7.0 mi NNE 8.1 mph - N/A   Mostly Cloudy
12:13 PM 44.6 °F 42.2 °F 39.2 °F 81% 29.53 in 7.0 mi NE 4.6 mph - N/A   Overcast
12:53 PM 46.9 °F - 39.9 °F 77% 29.54 in 9.0 mi Calm Calm - N/A   Mostly Cloudy
1:41 PM 48.2 °F - 39.2 °F 71% 29.50 in 10.0 mi North 13.8 mph - N/A   Mostly Cloudy
1:53 PM 46.0 °F 38.8 °F 37.9 °F 73% 29.52 in 10.0 mi North 18.4 mph - N/A   Mostly Cloudy
2:30 PM 42.8 °F 34.5 °F 37.4 °F 81% 29.48 in 10.0 mi North 18.4 mph - N/A   Mostly Cloudy
2:53 PM 42.1 °F 33.3 °F 36.0 °F 79% 29.49 in 10.0 mi North 19.6 mph - N/A   Overcast
3:40 PM 39.2 °F 30.5 °F 35.6 °F 87% 29.48 in 10.0 mi North 16.1 mph 25.3 mph 0.00 in Thunderstorm Overcast
3:53 PM 39.0 °F 30.3 °F 36.0 °F 89% 29.52 in 10.0 mi NNW 16.1 mph - 0.00 in   Overcast
3:57 PM 39.2 °F 29.3 °F 35.6 °F 87% 29.53 in 10.0 mi NW 20.7 mph 24.2 mph N/A   Overcast
4:07 PM 39.2 °F 29.8 °F 35.6 °F 87% 29.53 in 10.0 mi NNW 18.4 mph 27.6 mph 0.00 in Rain Light Rain
4:53 PM 39.0 °F 28.5 °F 36.0 °F 89% 29.55 in 10.0 mi NNW 23.0 mph 31.1 mph 0.00 in   Overcast
5:53 PM 37.0 °F 26.2 °F 33.1 °F 86% 29.60 in 10.0 mi North 21.9 mph 31.1 mph 0.00 in Rain Light Rain
6:01 PM 35.6 °F 23.7 °F 33.8 °F 93% 29.61 in 10.0 mi NNW 24.2 mph 29.9 mph 0.00 in Rain Light Rain
6:10 PM 35.6 °F 27.1 °F 33.8 °F 93% 29.64 in 10.0 mi NNW 12.7 mph 31.1 mph 0.00 in   Overcast
6:18 PM 35.6 °F 24.8 °F 33.8 °F 93% 29.63 in 9.0 mi NNW 19.6 mph 26.5 mph 0.01 in Rain Rain
6:53 PM 34.0 °F 22.4 °F 30.9 °F 89% 29.68 in 9.0 mi NNW 20.7 mph 33.4 mph 0.05 in Rain Light Rain
7:13 PM 32.0 °F 18.6 °F 30.2 °F 93% 29.61 in 10.0 mi North 25.3 mph 35.7 mph 0.00 in Rain Light Rain
7:39 PM 30.2 °F 15.9 °F 28.4 °F 93% 29.63 in 10.0 mi NNW 26.5 mph 39.1 mph 0.01 in   Overcast
7:53 PM 28.9 °F 12.8 °F 25.0 °F 85% 29.66 in 10.0 mi NNW 33.4 mph 46.0 mph 0.01 in   Mostly Cloudy
8:00 PM 28.4 °F 11.6 °F 24.8 °F 86% 29.64 in 10.0 mi NNW 35.7 mph 49.5 mph N/A   Mostly Cloudy
8:53 PM 26.1 °F 10.1 °F 21.0 °F 81% 29.69 in 10.0 mi NNW 27.6 mph 38.0 mph N/A   Partly Cloudy
9:53 PM 26.6 °F 12.0 °F 21.2 °F 80% 29.72 in 10.0 mi North 23.0 mph 36.8 mph N/A   Overcast
10:16 PM 24.8 °F 11.1 °F 21.2 °F 86% 29.76 in 10.0 mi NNW 18.4 mph 27.6 mph N/A   Overcast
10:53 PM 24.1 °F 10.6 °F 19.0 °F 81% 29.84 in 10.0 mi NNW 17.3 mph 28.8 mph N/A   Overcast
11:53 PM 21.9 °F 6.2 °F 16.0 °F 78% 29.88 in 10.0 mi NNW 21.9 mph 33.4 mph N/A   Overcast